Location: Shenandoah County Park
(38.9356°N, 78.4524°W)
Time: 14:08:10
(UTC-05:00)

Transit 2A - Pass Details

Date: 18 October 2025
Orbit: 591 x 954 km, 66.7° (Epoch: 07 November)

Event Time Altitude Azimuth Distance (km) Brightness Sun altitude
Rises 18:46:18 0° 194° (SSW) 2,917 9.4 -3.8°
Reaches altitude 10° 18:48:31 10° 190° (S) 2,053 8.5 -4.3°
Maximum altitude 18:53:02 54° 113° (ESE) 849 6.0 -5.1°
Drops below altitude 10° 18:58:03 10° 37° (NE) 2,281 8.0 -6.1°
Sets 19:00:37 0° 33° (NNE) 3,274 8.9 -6.6°
